�������l�o���
Date,Time,MP-1(��Sv/h),MP-2(��Sv/h),MP-3(��Sv/h),MP-4(��Sv/h),MP-5(��Sv/h),MP-6(��Sv/h),MP-7(��Sv/h),MP-8(��Sv/h),����,����(m/s),���J
2014/03/12,00:00,2.5,4.4,5.0,4.4,4.7,2.0,2.5,2.8,�쐼,3.3,��
2014/03/12,00:10,2.5,4.4,5.0,4.4,4.7,2.0,2.5,2.8,��쐼,3.6,��
2014/03/12,00:20,2.5,4.4,5.0,4.4,4.7,2.0,2.5,2.8,��,4.9,��
2014/03/12,00:30,2.5,4.4,5.0,4.5,4.7,2.0,2.5,2.8,��,4.6,��
2014/03/12,00:40,2.5,4.4,5.0,4.4,4.7,2.0,2.5,2.8,��,5.8,��
2014/03/12,00:50,2.5,4.4,5.0,4.4,4.7,2.0,2.5,2.8,��,6.0,��
2014/03/12,01:00,2.5,4.4,5.0,4.5,4.7,2.0,2.5,2.8,��,5.7,��
2014/03/12,01:10,2.5,4.4,5.0,4.5,4.7,2.0,2.5,2.8,��쐼,4.9,��
2014/03/12,01:20,2.5,4.4,5.0,4.4,4.7,2.0,2.5,2.8,��쐼,4.6,��
2014/03/12,01:30,2.5,4.5,5.0,4.4,4.7,2.0,2.5,2.8,��쐼,3.9,��
2014/03/12,01:40,2.5,4.4,5.0,4.5,4.7,2.0,2.5,2.8,��쐼,3.9,��
2014/03/12,01:50,2.5,4.4,5.0,4.5,4.7,2.0,2.5,2.8,��쐼,3.9,��
2014/03/12,02:00,2.5,4.4,5.0,4.5,4.7,2.0,2.5,2.8,��쐼,6.0,��
2014/03/12,02:10,2.5,4.4,5.0,4.5,4.7,2.0,2.5,2.8,��쐼,5.4,��
2014/03/12,02:20,2.5,4.5,5.0,4.5,4.7,2.0,2.5,2.8,��쐼,5.2,��
2014/03/12,02:30,2.5,4.5,5.0,4.4,4.7,2.0,2.5,2.8,��,5.4,��
2014/03/12,02:40,2.5,4.4,5.0,4.4,4.7,2.0,2.5,2.8,��,5.4,��
2014/03/12,02:50,2.5,4.4,5.0,4.5,4.7,2.0,2.5,2.8,��,4.5,��
2014/03/12,03:00,2.5,4.4,5.0,4.5,4.7,2.0,2.5,2.8,��쐼,4.8,��
2014/03/12,03:10,2.5,4.5,5.0,4.5,4.7,2.0,2.5,2.8,��쐼,3.2,��
2014/03/12,03:20,2.5,4.5,5.0,4.5,4.7,2.0,2.5,2.8,��쐼,4.7,��
2014/03/12,03:30,2.5,4.4,5.0,4.5,4.7,2.0,2.5,2.8,�쐼,3.7,��
2014/03/12,03:40,2.5,4.5,5.0,4.5,4.7,2.0,2.5,2.8,�쐼,2.7,��
2014/03/12,03:50,2.5,4.5,5.0,4.5,4.7,2.0,2.5,2.8,�쐼,2.8,��
2014/03/12,04:00,2.5,4.5,5.0,4.5,4.7,2.0,2.5,2.8,��쐼,2.9,��
2014/03/12,04:10,2.5,4.5,5.0,4.5,4.7,2.0,2.5,2.8,��쐼,3.3,��
2014/03/12,04:20,2.5,4.5,5.0,4.5,4.7,2.0,2.5,2.8,��쐼,3.7,��
2014/03/12,04:30,2.5,4.5,5.0,4.5,4.7,2.0,2.5,2.8,��쐼,3.5,��
2014/03/12,04:40,2.5,4.4,5.0,4.4,4.7,2.0,2.5,2.8,�쐼,4.3,��
2014/03/12,04:50,2.5,4.4,5.0,4.4,4.7,2.0,2.5,2.8,�쐼,3.7,��
2014/03/12,05:00,2.5,4.4,5.0,4.4,4.7,2.0,2.5,2.8,�쐼,3.1,��
2014/03/12,05:10,2.5,4.4,5.0,4.5,4.7,2.0,2.5,2.8,�쐼,2.7,��
2014/03/12,05:20,2.5,4.5,5.0,4.5,4.7,2.0,2.5,2.8,�쐼,2.0,��
2014/03/12,05:30,2.5,4.4,5.0,4.4,4.7,2.0,2.5,2.8,�쐼,1.8,��
2014/03/12,05:40,2.5,4.4,5.0,4.5,4.7,2.0,2.5,2.8,�쐼,1.4,��
2014/03/12,05:50,2.5,4.4,5.0,4.5,4.7,2.0,2.5,2.8,�쐼,1.1,��
2014/03/12,06:00,2.5,4.4,5.0,4.4,4.7,2.0,2.5,2.8,��,0.8,��
2014/03/12,06:10,2.5,4.4,5.0,4.5,4.7,2.0,2.5,2.8,�쐼,0.6,��
2014/03/12,06:20,2.5,4.4,5.0,4.5,4.7,2.0,2.5,2.8,���쐼,0.7,��
2014/03/12,06:30,2.5,4.4,5.0,4.5,4.7,2.0,2.5,2.8,-,CALM,��
2014/03/12,06:40,2.5,4.4,5.0,4.5,4.7,2.0,2.5,2.8,�k,0.7,��
2014/03/12,06:50,2.5,4.5,5.0,4.5,4.7,2.0,2.5,2.8,�k��,1.2,��
2014/03/12,07:00,2.5,4.5,5.0,4.5,4.7,2.0,2.5,2.8,�k�k��,1.7,��
2014/03/12,07:10,2.5,4.5,5.0,4.5,4.7,2.0,2.5,2.8,�k��,1.3,��
2014/03/12,07:20,2.5,4.4,5.0,4.5,4.7,2.0,2.5,2.8,�k��,1.4,��
2014/03/12,07:30,2.5,4.4,5.0,4.5,4.7,2.0,2.5,2.8,�k,1.3,��
2014/03/12,07:40,2.5,4.4,5.0,4.5,4.7,2.0,2.5,2.8,�k��,1.7,��
2014/03/12,07:50,2.5,4.5,5.0,4.5,4.7,2.0,2.5,2.8,�k�k��,2.3,��
2014/03/12,08:00,2.5,4.5,5.0,4.5,4.7,2.0,2.5,2.8,�k�k��,2.7,��
2014/03/12,08:10,2.5,4.5,5.0,4.5,4.7,2.0,2.5,2.8,�k�k��,3.7,��
2014/03/12,08:20,2.5,4.5,5.0,4.5,4.7,2.0,2.5,2.8,�k�k��,3.7,��
2014/03/12,08:30,2.5,4.5,5.0,4.5,4.7,2.0,2.5,2.8,�k�k��,4.3,��
2014/03/12,08:40,2.5,4.5,5.0,4.5,4.7,2.0,2.5,2.8,�k�k��,4.4,��
2014/03/12,08:50,2.5,4.5,5.0,4.5,4.7,2.0,2.5,2.8,�k�k��,3.7,�L
2014/03/12,09:00,2.5,4.5,5.0,4.5,4.7,2.0,2.5,2.8,�k��,3.7,�L
2014/03/12,09:10,2.5,4.5,5.0,4.5,4.7,2.0,2.5,2.8,�k��,4.1,�L
2014/03/12,09:20,2.5,4.5,5.0,4.5,4.7,2.0,2.5,2.8,�k��,2.5,��
2014/03/12,09:30,2.5,4.5,5.0,4.5,4.7,2.0,2.5,2.8,�k��,2.6,��
2014/03/12,09:40,2.5,4.5,5.0,4.5,4.7,2.0,2.5,2.8,�k��,2.3,��
2014/03/12,09:50,2.5,4.5,5.0,4.5,4.7,2.0,2.5,2.8,���k��,3.1,��
2014/03/12,10:00,2.5,4.5,5.0,4.5,4.7,2.0,2.5,2.8,���k��,2.7,��
2014/03/12,10:10,2.5,4.5,5.0,4.5,4.7,2.0,2.5,2.8,���k��,2.6,��
2014/03/12,10:20,-,4.5,5.0,4.5,4.7,2.0,2.5,2.8,���k��,2.4,��
2014/03/12,10:30,-,4.5,5.0,4.5,4.7,2.0,2.5,2.8,���k��,2.9,��
2014/03/12,10:40,-,4.5,5.0,4.4,4.7,2.0,2.5,2.8,���k��,2.4,��
2014/03/12,10:50,-,4.5,5.0,4.4,4.7,2.0,2.5,2.8,�k��,2.3,��
2014/03/12,11:00,-,4.5,5.0,4.5,4.7,2.0,2.5,2.8,��,1.8,��
2014/03/12,11:10,-,4.5,5.0,4.5,4.7,2.0,2.5,2.8,��,2.0,��
2014/03/12,11:20,-,4.5,5.0,4.5,4.7,2.0,2.5,2.8,���k��,2.1,��
2014/03/12,11:30,-,4.5,5.0,4.5,4.7,2.0,2.5,2.8,���k��,2.2,��
2014/03/12,11:40,-,4.5,5.0,4.5,4.7,2.0,2.5,2.8,���k��,2.4,��
2014/03/12,11:50,-,4.5,5.0,4.5,4.7,2.0,2.5,2.8,���k��,2.6,��
2014/03/12,12:00,-,4.5,5.0,4.5,4.7,2.0,2.5,2.8,���k��,2.8,��
2014/03/12,12:10,-,4.5,5.0,4.5,4.7,2.0,2.5,2.8,�k��,2.2,��
2014/03/12,12:20,-,4.5,5.0,4.5,4.7,2.0,2.5,2.8,�k��,2.2,��
2014/03/12,12:30,-,4.5,5.0,4.5,4.7,2.0,2.5,2.8,�k��,2.4,��
2014/03/12,12:40,-,4.5,5.0,4.5,4.7,2.0,2.5,2.8,���k��,2.3,��
2014/03/12,12:50,-,4.5,5.0,4.5,4.7,2.0,2.5,2.8,���k��,2.6,��
2014/03/12,13:00,-,4.5,5.0,4.5,4.7,2.0,2.5,2.8,���k��,2.1,��
2014/03/12,13:10,-,4.5,5.0,4.5,4.7,2.0,2.5,2.8,�k��,2.4,��
2014/03/12,13:20,-,4.5,5.0,4.5,4.7,2.0,2.5,2.8,���k��,2.1,��
2014/03/12,13:30,-,4.5,5.0,4.5,4.7,2.0,2.5,2.8,���k��,2.2,��
2014/03/12,13:40,-,4.5,5.0,4.5,4.7,2.0,2.5,2.8,��,2.6,��
2014/03/12,13:50,-,4.5,5.0,4.5,4.7,2.0,2.5,2.8,��,3.3,��
2014/03/12,14:00,-,4.5,5.0,4.5,4.7,2.0,2.5,2.8,���쓌,3.1,��
2014/03/12,14:10,-,4.5,5.0,4.5,4.7,2.0,2.5,2.8,���쓌,3.5,��
2014/03/12,14:20,-,4.5,5.0,4.5,4.7,2.0,2.5,2.8,���쓌,3.6,��
2014/03/12,14:30,-,4.5,5.0,4.5,4.7,2.0,2.5,2.8,�쓌,3.4,��
2014/03/12,14:40,-,4.5,5.0,4.5,4.7,2.0,2.5,2.8,���쓌,3.5,��
2014/03/12,14:50,-,4.5,5.0,4.5,4.7,2.0,2.5,2.8,���쓌,3.6,��
2014/03/12,15:00,-,4.5,5.0,4.5,4.7,2.0,2.5,2.8,��,3.3,��
2014/03/12,15:10,-,4.5,5.0,4.5,4.7,2.0,2.5,2.8,���쓌,4.0,��
2014/03/12,15:20,-,4.5,5.0,4.5,4.7,2.0,2.5,2.8,��,3.3,��
2014/03/12,15:30,-,4.5,5.0,4.5,4.7,2.0,2.5,2.8,��,3.1,��
2014/03/12,15:40,-,4.5,5.0,4.5,4.7,2.0,2.5,2.8,��,3.6,��
2014/03/12,15:50,-,4.5,5.0,4.5,4.7,2.0,2.5,2.8,���k��,3.4,��
2014/03/12,16:00,-,4.5,5.0,4.5,4.7,2.0,2.5,2.8,���k��,2.6,��
2014/03/12,16:10,-,4.5,5.0,4.5,4.7,2.0,2.5,2.8,��,2.5,��
2014/03/12,16:20,-,4.5,5.0,4.5,4.7,2.0,2.5,2.8,���k��,2.1,��
2014/03/12,16:30,-,4.5,5.0,4.5,4.7,2.1,2.5,2.8,��,2.6,��
2014/03/12,16:40,-,4.5,5.0,4.5,4.7,2.1,2.5,2.8,���k��,1.8,��
2014/03/12,16:50,-,4.5,5.0,4.5,4.7,2.1,2.5,2.8,���k��,1.5,��
2014/03/12,17:00,-,4.5,5.0,4.5,4.7,2.0,2.5,2.8,���k��,1.5,��
2014/03/12,17:10,-,4.5,5.0,4.5,4.7,2.0,2.5,2.8,�k��,1.4,��
2014/03/12,17:20,-,4.5,5.0,4.5,4.7,2.1,2.5,2.8,���k��,1.1,��
2014/03/12,17:30,-,4.5,5.0,4.5,4.7,2.1,2.5,2.8,�k��,1.4,��
2014/03/12,17:40,2.5,4.5,5.0,4.5,4.7,2.1,2.5,2.8,���k��,1.5,��
2014/03/12,17:50,2.5,4.5,5.0,4.5,4.7,2.0,2.5,2.8,���k��,1.6,��
2014/03/12,18:00,2.5,4.5,5.0,4.5,4.7,2.1,2.5,2.8,���k��,1.3,��
2014/03/12,18:10,2.5,4.5,5.0,4.5,4.7,2.0,2.5,2.8,���k��,1.3,��
2014/03/12,18:20,2.5,4.5,5.0,4.5,4.7,2.0,2.5,2.8,�k��,1.1,��
2014/03/12,18:30,2.5,4.5,5.0,4.5,4.7,2.1,2.5,2.8,���k��,1.0,��
2014/03/12,18:40,2.5,4.5,5.0,4.5,4.7,2.1,2.5,2.8,���k��,0.8,��
2014/03/12,18:50,2.5,4.5,5.0,4.5,4.7,2.0,2.5,2.8,���쓌,1.1,��
2014/03/12,19:00,2.5,4.5,5.0,4.5,4.7,2.1,2.5,2.8,���쓌,1.6,��
2014/03/12,19:10,2.5,4.5,5.0,4.5,4.7,2.1,2.5,2.8,��,0.6,��
2014/03/12,19:20,2.5,4.5,5.0,4.5,4.7,2.1,2.5,2.8,���쓌,0.7,��
2014/03/12,19:30,2.5,4.5,5.0,4.5,4.7,2.1,2.5,2.8,�k,1.0,��
2014/03/12,19:40,2.5,4.5,5.0,4.5,4.7,2.0,2.5,2.8,�k,1.6,��
2014/03/12,19:50,2.5,4.5,5.0,4.5,4.7,2.0,2.5,2.8,�k,2.4,��
2014/03/12,20:00,2.5,4.5,5.0,4.5,4.7,2.0,2.5,2.8,�k,3.0,��
2014/03/12,20:10,2.5,4.5,5.0,4.5,4.7,2.0,2.5,2.8,�k,2.9,��
2014/03/12,20:20,2.5,4.5,5.0,4.5,4.7,2.0,2.5,2.8,�k,2.5,��
2014/03/12,20:30,2.5,4.5,5.0,4.5,4.7,2.1,2.5,2.8,�k,1.8,��
2014/03/12,20:40,2.5,4.5,5.0,4.5,4.7,2.0,2.5,2.8,�k,1.9,��
2014/03/12,20:50,2.5,4.5,5.0,4.5,4.7,2.0,2.5,2.8,�k�k��,2.3,��
2014/03/12,21:00,2.5,4.5,5.0,4.5,4.7,2.0,2.5,2.8,�k�k��,2.7,��
2014/03/12,21:10,2.5,4.5,5.0,4.5,4.7,2.0,2.5,2.8,�k�k��,3.2,��
2014/03/12,21:20,2.5,4.5,5.0,4.5,4.7,2.0,2.5,2.8,�k�k��,3.3,��
2014/03/12,21:30,2.5,4.5,5.0,4.5,4.7,2.0,2.5,2.8,�k�k��,3.2,��
2014/03/12,21:40,2.5,4.5,5.0,4.5,4.7,2.0,2.5,2.8,�k�k��,2.9,��
2014/03/12,21:50,2.5,4.5,5.0,4.5,4.7,2.0,2.5,2.8,�k�k��,3.0,��
2014/03/12,22:00,2.5,4.5,5.0,4.5,4.7,2.0,2.5,2.8,�k�k��,3.2,��
2014/03/12,22:10,2.5,4.5,5.0,4.5,4.7,2.0,2.5,2.8,�k�k��,3.5,��
2014/03/12,22:20,2.5,4.5,5.0,4.5,4.7,2.0,2.5,2.8,�k�k��,3.8,��
2014/03/12,22:30,2.5,4.5,5.0,4.5,4.7,2.0,2.5,2.8,�k�k��,3.6,��
2014/03/12,22:40,2.5,4.5,5.0,4.5,4.7,2.0,2.5,2.8,�k�k��,3.5,��
2014/03/12,22:50,2.5,4.5,5.0,4.5,4.7,2.0,2.5,2.8,�k�k��,3.6,��
2014/03/12,23:00,2.5,4.5,5.0,4.5,4.7,2.0,2.5,2.8,�k�k��,3.4,��
2014/03/12,23:10,2.5,4.5,5.0,4.5,4.7,2.0,2.5,2.8,�k�k��,2.6,��
2014/03/12,23:20,2.5,4.5,5.0,4.5,4.7,2.0,2.5,2.8,�k,2.6,��
2014/03/12,23:30,2.5,4.5,5.0,4.5,4.7,2.0,2.5,2.8,�k�k��,2.7,��
2014/03/12,23:40,2.5,4.5,5.0,4.5,4.7,2.1,2.5,2.8,�k�k��,1.8,��
2014/03/12,23:50,2.5,4.5,5.0,4.5,4.7,2.1,2.5,2.8,�k,1.6,��
